[ ตารางข้อมูล ] [ Min-Max ] [ วันนี้4 ] [ วันนี้2 ] [ เทียบ3วัน A ] [ เทียบ4วัน B ]   

วันนี้2   [ ◀ ช่วงเก่ากว่า ] [ ช่วงที่ 191 ] [ ช่วงใหม่กว่า ▶ ] [ ล่าสุด ]    [ 3 ชั่วโมง ] [ 6 ชั่วโมง ] [ 12 ชั่วโมง ] [ 24 ชั่วโมง ]   วันนี้2

อุณภูมิตู้ Knockdown4529  ราย 6 ชั่วโมง  ที่วัดได้ ในช่วงวันเวลา 17/03/2026 (06:32) ถึง 17/03/2026 (12:32) 
ความชื้นในตู้ Knockdown4529  ราย 6 ชั่วโมง  ที่วัดได้ ในช่วงวันเวลา 17/03/2026 (06:32) ถึง 17/03/2026 (12:32) 

 
DS18B20SHTC3 
IDDate d/m/Y & Timedata1
สูง
data2
ต่ำ
data3
นอก
temp
pcb
hum
pcb
Time
 3309  17/03/2026 12:32:24  31.1  30.2  31.2  30.4  67.9  12:32 
 3308  17/03/2026 12:27:43  31.0  30.1  31.4  30.5  68.0  12:27 
 3307  17/03/2026 12:23:00  30.9  30.1  31.3  30.2  68.1  12:23 
 3306  17/03/2026 12:18:18  30.9  30.1  31.4  30.4  68.2  12:18 
 3305  17/03/2026 12:13:37  30.8  30.1  30.9  30.4  68.3  12:13 
 3304  17/03/2026 12:08:55  30.8  30.0  31.1  30.2  68.2  12:08 
 3303  17/03/2026 12:04:12  30.7  30.0  31.1  30.3  68.2  12:04 
 3302  17/03/2026 11:59:30  30.7  30.0  30.8  30.3  68.1  11:59 
 3301  17/03/2026 11:54:49  30.7  29.9  30.2  30.1  68.2  11:54 
 3300  17/03/2026 11:50:08  30.7  29.9  30.5  30.2  68.2  11:50 
 3299  17/03/2026 11:45:27  30.7  29.9  30.6  30.1  68.1  11:45 
 3298  17/03/2026 11:40:45  30.6  29.9  31.0  30.2  68.0  11:40 
 3297  17/03/2026 11:36:03  30.6  29.8  30.9  30.1  68.1  11:36 
 3296  17/03/2026 11:31:21  30.6  29.8  31.0  30.1  68.1  11:31 
 3295  17/03/2026 11:26:40  30.5  29.8  30.7  30.0  68.1  11:26 
 3294  17/03/2026 11:21:59  30.4  29.7  31.0  29.9  68.4  11:21 
 3293  17/03/2026 11:17:18  30.3  29.7  31.2  29.8  68.3  11:17 
 3292  17/03/2026 11:12:36  30.3  29.6  30.4  29.9  68.3  11:12 
 3291  17/03/2026 11:07:54  30.3  29.6  30.4  29.7  68.3  11:07 
 3290  17/03/2026 11:03:11  30.3  29.6  30.4  30.0  68.4  11:03 
 3289  17/03/2026 10:58:29  30.3  29.5  30.9  29.9  68.5  10:58 
 3288  17/03/2026 10:53:48  30.2  29.4  31.2  29.9  68.3  10:53 
 3287  17/03/2026 10:49:06  30.2  29.4  30.7  29.7  68.4  10:49 
 3286  17/03/2026 10:44:25  30.2  29.3  31.1  29.6  68.4  10:44 

Data every 5 minute.


ใช้เวลาประมวลผล 0.00527 วินาที